« Back
NWS Peachtree City, Ga » Text Product » GA Regional Weather Roundup


Printer-friendly Version
Current Version              Previous Versions:   1  2  3  4  5  6  7  8  9  

Regional Weather Roundup

843
ASUS42 KFFC 010703
RWRGA
WEATHER ROUNDUP FOR GEORGIA
NATIONAL WEATHER SERVICE PEACHTREE CITY GA
300 AM EDT FRI JUL 01 2016

NOTE: "FAIR" INDICATES FEW OR NO CLOUDS BELOW 12,000 FEET WITH NO
SIGNIFICANT WEATHER AND/OR OBSTRUCTIONS TO VISIBILITY.

* = USE WITH CAUTION. THE STATIONS MARKED WITH AN ASTERISK MAY NOT
REPORT WEATHER SUCH AS PRECIPITATION, FOG, OR THUNDER AND ARE NOT
QUALITY CONTROLLED BY NWS.

THE REMARK "TC" DENOTES TEMPERATURE READING IN DEGREES CELSIUS.

GAZ001>058-010800-
NORTH GEORGIA

CITY           SKY/WX    TMP DP  RH WIND       PRES   REMARKS
ATLANTA        MOCLDY    75  71  87 S7        30.00S
ATHENS         CLOUDY    71  71 100 CALM      30.00F
CHAMBLEE       MOCLDY    74  68  81 S3        30.00S
PEACHTREE CITY MOCLDY    74  72  93 S3        30.00F
ROME           CLEAR     67  59  75 CALM      29.96F
WEST ATLANTA   MOCLDY    76  70  82 SW3       29.98F
GAINESVILLE    CLOUDY    72  69  90 CALM      30.03F
CARTERSVILLE   CLEAR     72  69  90 CALM      29.98F


CITY           SKY/WX    TMP DP  RH WIND       PRES   REMARKS
DALTON*        CLEAR     68  61  77 CALM      29.98S
MARIETTA       PTCLDY    75  71  86 SE5       29.99F
CANTON*        CLEAR     72  61  68 CALM      30.01F
$$

GAZ059>098-102>109-010800-
CENTRAL GEORGIA

CITY           SKY/WX    TMP DP  RH WIND       PRES   REMARKS
AUGUSTA-BUSH   CLOUDY    70  69  97 E5        29.99F
AUGUSTA-DANIEL CLOUDY    75  70  84 S5        30.01S
COLUMBUS       CLEAR     75  72  90 S5        29.98F
MACON          CLEAR     75  72  90 CALM      29.99F
ROBINS AFB     CLEAR     74  74 100 S5        29.98F


CITY           SKY/WX    TMP DP  RH WIND       PRES   REMARKS
LAGRANGE*      MOCLDY    77  77 100 CALM      29.99F
SYLVANIA*      CLOUDY    74  72  94 CALM      30.01F
MILLEDGEVILLE* CLEAR     73  73 100 CALM      29.99F
$$

GAZ099>101-110>166-010800-
SOUTH GEORGIA

CITY           SKY/WX    TMP DP  RH WIND       PRES   REMARKS
SAVANNAH       PTCLDY    75  73  93 CALM      29.99F
VALDOSTA       CLOUDY    75  74  96 CALM      29.99F
ALMA           CLOUDY    74  73  97 CALM      29.99S
FT STEWART     CLOUDY    74  73  95 CALM      29.97F
ALBANY         CLOUDY    75  72  90 CALM      30.00F
HUNTER AFB     MOCLDY    75  75 100 S1        29.97F
MOODY AFB      CLOUDY    75  73  92 S3        29.97F
BRUNSWICK      CLOUDY    77  77 100 SW3       30.00S


CITY           SKY/WX    TMP DP  RH WIND       PRES   REMARKS
BAINBRIDGE*    PTCLDY    73  72  94 CALM      29.99S
MOULTRIE*      CLOUDY    73  72  94 CALM      30.00F
VIDALIA*       CLOUDY    73  72  94 CALM      30.00S
WAYCROSS*      CLOUDY    79  78  98 S5        29.98F
DOUGLAS*       MOCLDY    75  72  88 CALM      30.01S
$$




USA.gov is the U.S. government's official web portal to all federal, state and local government web resources and services.